WD7OO Weather Reports


time (UTC)temp
F
wind
direction
speed
knots
gust
knots
rain 1hr
in
rain 24hr
in
rain mn
in
humidity
%
barometer
mb
20260509043201 53 341 0.0 0.0 0.00 0.00 0.00 91 1007.4
20260509042657 53 341 0.0 0.0 0.00 0.00 0.00 91 1007.6
20260509042153 53 342 0.0 0.9 0.00 0.00 0.00 91 1007.6
20260509041650 53 341 0.0 0.0 0.00 0.00 0.00 91 1007.4
20260509041148 53 341 0.0 0.0 0.00 0.00 0.00 91 1007.5
20260509040646 53 341 0.0 0.9 0.00 0.00 0.00 91 1007.5
20260509040143 53 341 0.0 0.0 0.00 0.00 0.00 91 1007.6
20260509035639 53 341 0.0 0.0 0.00 0.01 0.01 91 1007.6
20260509035136 53 341 0.0 0.0 0.00 0.01 0.01 91 1007.7
20260509034634 54 341 0.0 0.0 0.00 0.01 0.01 91 1007.6
20260509034131 54 341 0.0 0.0 0.00 0.01 0.01 91 1007.8
20260509033628 54 340 0.0 0.9 0.00 0.01 0.01 91 1007.7
20260509033125 54 341 0.0 0.0 0.00 0.01 0.01 91 1007.7
20260509032622 54 341 0.0 0.0 0.00 0.01 0.01 90 1007.9
20260509032119 54 341 0.0 0.0 0.00 0.01 0.01 90 1007.9
20260509031617 55 341 0.0 0.0 0.00 0.01 0.01 90 1008.0
20260509031114 55 339 0.0 0.0 0.00 0.01 0.01 90 1007.9
20260509030612 55 336 0.0 0.0 0.00 0.01 0.01 90 1007.8
20260509030109 55 331 0.0 0.0 0.00 0.01 0.01 90 1007.7
20260509025605 55 330 0.0 0.9 0.00 0.01 0.01 90 1007.9
20260509025100 54 336 0.0 0.9 0.00 0.01 0.01 91 1007.9
20260509024556 54 310 0.0 0.0 0.00 0.01 0.01 92 1008.0
20260509024052 54 317 0.0 0.9 0.00 0.01 0.01 93 1008.1
20260509023550 54 287 0.0 0.0 0.00 0.01 0.01 93 1008.0
20260509023047 53 258 0.0 0.0 0.00 0.01 0.01 93 1008.1
20260509022543 53 258 0.0 0.0 0.00 0.01 0.01 93 1007.9
20260509022042 53 258 0.0 0.0 0.00 0.01 0.01 93 1007.9
20260509021538 53 258 0.0 0.0 0.00 0.01 0.01 92 1008.0
20260509021035 53 258 0.0 0.0 0.00 0.01 0.01 92 1008.0
20260509020534 53 258 0.0 0.0 0.00 0.01 0.01 92 1007.9
20260509020030 53 258 0.0 0.0 0.00 0.01 0.01 92 1008.0
20260509015529 53 258 0.0 0.0 0.00 0.01 0.01 92 1008.1
20260509015026 54 258 0.0 0.0 0.00 0.01 0.01 91 1008.1
20260509014523 53 258 0.0 0.0 0.00 0.01 0.01 91 1008.0
20260509014019 53 258 0.0 0.0 0.00 0.01 0.01 90 1007.9
20260509013516 54 258 0.0 0.0 0.00 0.01 0.01 90 1007.9
20260509013011 54 258 0.0 0.0 0.00 0.01 0.01 89 1007.8
20260509012508 55 258 0.0 0.0 0.00 0.01 0.01 89 1007.8
20260509012005 55 258 0.0 0.0 0.00 0.01 0.01 87 1007.9
20260509011503 55 258 0.0 0.0 0.00 0.01 0.01 86 1007.7
20260509011000 55 258 0.0 0.0 0.00 0.01 0.01 86 1007.8
20260509010458 56 258 0.0 0.0 0.00 0.01 0.01 85 1007.8
20260509005954 56 258 0.0 0.0 0.00 0.01 0.01 84 1007.8
20260509005453 57 258 0.0 0.0 0.00 0.01 0.01 83 1007.6
20260509004952 57 258 0.0 0.0 0.00 0.01 0.01 82 1007.5
20260509004449 58 258 0.0 0.0 0.00 0.01 0.01 80 1007.8
20260509003947 58 258 0.0 0.0 0.00 0.01 0.01 80 1007.7
20260509003445 59 258 0.0 0.0 0.00 0.01 0.01 79 1007.4
20260509002941 59 258 0.0 0.0 0.00 0.01 0.01 79 1007.5
20260509002439 59 258 0.0 0.0 0.00 0.01 0.01 78 1007.5
20260509001936 60 258 0.0 0.0 0.00 0.01 0.01 77 1007.4
20260509001433 60 257 0.0 0.0 0.00 0.01 0.01 76 1007.5
20260509000929 60 257 0.0 0.9 0.00 0.01 0.01 76 1007.2
20260509000428 60 257 0.0 0.0 0.00 0.01 0.01 75 1007.4
20260508235923 61 274 0.0 0.9 0.00 0.01 0.01 74 1007.5
20260508235421 61 237 0.9 1.7 0.00 0.01 0.01 74 1007.6
20260508234917 62 168 2.6 2.6 0.00 0.01 0.01 72 1007.4
20260508234415 62 232 0.9 1.7 0.00 0.01 0.01 71 1007.4
20260508233912 62 240 0.0 0.9 0.00 0.01 0.01 69 1007.7
20260508233412 62 243 0.9 0.9 0.00 0.01 0.01 68 1007.6
20260508232908 64 256 2.6 2.6 0.00 0.01 0.01 65 1007.6
20260508232404 64 261 0.0 0.9 0.00 0.01 0.01 63 1007.8
20260508231902 64 266 0.0 0.9 0.00 0.01 0.01 64 1007.6
20260508231359 63 317 0.0 0.9 0.00 0.01 0.01 66 1007.5
20260508230856 63 273 0.9 1.7 0.00 0.01 0.01 66 1007.9
20260508230352 63 270 0.9 1.7 0.00 0.01 0.01 66 1007.6
20260508225850 64 236 0.9 1.7 0.00 0.01 0.01 66 1007.6
20260508225346 64 268 0.0 1.7 0.00 0.01 0.01 66 1007.7
20260508224844 64 197 0.9 1.7 0.00 0.01 0.01 63 1007.7
20260508224341 65 153 2.6 4.3 0.00 0.01 0.01 58 1007.9
20260508223839 65 262 0.9 1.7 0.00 0.01 0.01 60 1007.7
20260508223336 65 229 1.7 2.6 0.00 0.01 0.01 60 1007.7
20260508222833 65 283 0.9 1.7 0.00 0.01 0.01 62 1007.9
20260508222331 65 10 0.0 0.9 0.00 0.01 0.01 60 1007.8
20260508221827 66 180 1.7 1.7 0.00 0.01 0.01 59 1007.7
20260508221322 65 253 1.7 2.6 0.00 0.01 0.01 58 1007.9
20260508220819 65 265 0.9 0.9 0.00 0.01 0.01 56 1007.7
20260508220316 65 51 0.9 1.7 0.00 0.01 0.01 58 1007.8
20260508215813 66 202 2.6 4.3 0.00 0.01 0.01 59 1007.7
20260508215309 66 313 0.9 1.7 0.00 0.01 0.01 59 1007.9
20260508214806 67 177 1.7 1.7 0.00 0.01 0.01 62 1007.8
20260508214303 66 251 0.9 1.7 0.00 0.01 0.01 62 1007.8
20260508213759 66 276 0.9 2.6 0.00 0.01 0.01 60 1007.8
20260508213256 66 244 0.9 1.7 0.00 0.01 0.01 62 1008.0
20260508212753 65 253 0.9 2.6 0.00 0.01 0.01 64 1007.7
20260508212249 64 239 0.0 1.7 0.00 0.01 0.01 65 1008.0
20260508211745 63 305 0.9 1.7 0.00 0.01 0.01 65 1007.9
20260508211241 63 194 2.6 4.3 0.00 0.01 0.01 63 1008.1
20260508210739 63 220 0.9 2.6 0.00 0.01 0.01 65 1008.1
20260508210235 63 270 0.9 1.7 0.00 0.01 0.01 65 1008.2
20260508205732 63 252 1.7 1.7 0.00 0.01 0.01 65 1008.2
20260508205229 63 195 2.6 2.6 0.00 0.01 0.01 67 1008.3
20260508204725 63 207 1.7 1.7 0.00 0.01 0.01 64 1008.3
20260508204222 63 268 0.9 2.6 0.00 0.01 0.01 65 1008.4
20260508203717 63 333 0.9 1.7 0.00 0.01 0.01 66 1008.1
20260508203214 62 206 2.6 2.6 0.00 0.01 0.01 64 1008.5
20260508202710 62 223 0.9 2.6 0.00 0.01 0.01 65 1008.6
20260508202207 62 210 1.7 2.6 0.00 0.01 0.01 67 1008.5
20260508201704 62 263 0.9 1.7 0.00 0.01 0.01 65 1008.6
20260508201201 62 215 1.7 4.3 0.00 0.01 0.01 66 1008.8
20260508200658 62 206 0.9 2.6 0.00 0.01 0.01 66 1008.5
20260508200153 63 226 3.5 5.2 0.00 0.01 0.01 64 1008.8
20260508195650 63 82 1.7 2.6 0.00 0.01 0.01 64 1009.0
20260508195147 64 158 1.7 5.2 0.00 0.01 0.01 65 1009.0
20260508194643 64 266 0.9 0.9 0.00 0.01 0.01 65 1009.0
20260508194140 64 297 1.7 7.0 0.00 0.01 0.01 62 1008.8
20260508193637 64 273 1.7 4.3 0.00 0.01 0.01 65 1009.0
20260508193134 65 219 3.5 5.2 0.00 0.01 0.01 63 1009.1
20260508192631 64 5 3.5 5.2 0.00 0.01 0.01 65 1009.2
20260508192128 62 267 1.7 4.3 0.00 0.01 0.01 69 1009.4
20260508191625 61 231 1.7 2.6 0.00 0.01 0.01 71 1009.3
20260508191121 62 226 0.9 1.7 0.00 0.01 0.01 69 1009.4
20260508190619 62 175 1.7 1.7 0.00 0.01 0.01 70 1009.4
20260508190115 62 233 1.7 2.6 0.00 0.01 0.01 71 1009.4
20260508185612 62 278 0.0 2.6 0.00 0.01 0.01 71 1009.6
20260508185109 63 225 1.7 2.6 0.00 0.01 0.01 64 1009.9
20260508184607 63 131 1.7 1.7 0.00 0.01 0.01 68 1009.9
20260508184104 63 287 0.9 1.7 0.00 0.01 0.01 67 1009.8
20260508183600 63 8 1.7 4.3 0.00 0.01 0.01 63 1009.8
20260508183056 63 208 2.6 2.6 0.00 0.01 0.01 64 1009.8
20260508182553 62 236 0.9 1.7 0.00 0.01 0.01 62 1010.0
20260508182050 63 289 0.9 1.7 0.00 0.01 0.01 64 1010.2
20260508181550 63 281 0.0 2.6 0.00 0.01 0.01 64 1010.0
20260508181048 63 300 0.9 1.7 0.00 0.01 0.01 62 1009.8
20260508180544 63 213 1.7 2.6 0.00 0.01 0.01 61 1010.1
20260508180041 63 287 2.6 2.6 0.00 0.01 0.01 61 1010.0
20260508175537 63 309 1.7 1.7 0.00 0.01 0.01 62 1010.2
20260508175035 63 256 0.0 1.7 0.00 0.01 0.01 60 1010.4
20260508174533 62 255 1.7 2.6 0.00 0.01 0.01 59 1010.4
20260508174029 63 339 1.7 2.6 0.00 0.01 0.01 55 1010.4
20260508173526 62 259 0.9 4.3 0.00 0.01 0.01 58 1010.5
20260508173022 63 279 1.7 2.6 0.00 0.01 0.01 53 1010.7
20260508172519 63 241 0.9 5.2 0.00 0.01 0.01 56 1010.9
20260508172015 62 297 0.9 1.7 0.00 0.01 0.01 52 1011.2
20260508171512 63 286 0.9 2.6 0.00 0.01 0.01 51 1011.0
20260508171009 63 261 3.5 5.2 0.00 0.01 0.01 53 1011.1
20260508170506 62 262 0.9 0.9 0.00 0.01 0.01 54 1011.0
20260508170003 62 295 0.9 1.7 0.00 0.01 0.01 54 1011.2
20260508165501 63 253 0.9 2.6 0.00 0.01 0.01 55 1011.1
20260508164956 62 213 2.6 2.6 0.00 0.01 0.01 57 1011.2
20260508164454 62 2 0.9 1.7 0.00 0.01 0.01 57 1011.3
20260508163950 62 303 0.0 1.7 0.00 0.01 0.01 58 1011.4
20260508163448 61 279 0.9 4.3 0.00 0.01 0.01 59 1011.5
20260508162944 61 54 1.7 2.6 0.00 0.01 0.01 62 1011.5
20260508162442 60 263 1.7 2.6 0.00 0.01 0.01 64 1011.8
20260508161938 60 293 1.7 1.7 0.00 0.01 0.01 65 1011.6
20260508161435 60 182 2.6 2.6 0.00 0.01 0.01 64 1011.7
20260508160932 60 294 0.0 1.7 0.00 0.01 0.01 63 1011.8
20260508160432 60 257 0.9 1.7 0.00 0.01 0.01 63 1012.0
20260508155927 60 271 0.9 1.7 0.00 0.01 0.01 63 1011.8
20260508155425 60 18 0.9 1.7 0.00 0.01 0.01 63 1011.8
20260508154921 59 236 0.9 2.6 0.00 0.01 0.01 68 1011.7
20260508154419 59 329 0.9 1.7 0.00 0.01 0.01 69 1011.8
20260508153915 59 258 0.9 1.7 0.00 0.01 0.01 70 1011.8
20260508153412 57 342 0.9 1.7 0.00 0.01 0.01 72 1011.8
20260508152908 57 238 0.9 1.7 0.00 0.01 0.01 72 1011.9
20260508152405 58 241 0.9 1.7 0.00 0.01 0.01 71 1011.8
20260508151902 57 273 0.0 0.9 0.00 0.01 0.01 74 1011.9
20260508151359 57 275 0.9 1.7 0.00 0.01 0.01 77 1011.8
20260508150855 56 263 0.9 1.7 0.00 0.01 0.01 76 1011.7
20260508150352 57 283 2.6 2.6 0.00 0.01 0.01 77 1012.0
20260508145848 57 207 0.9 1.7 0.00 0.01 0.01 78 1011.9
20260508145344 57 308 0.0 0.9 0.00 0.01 0.01 80 1011.6
20260508144841 57 280 0.9 0.9 0.00 0.01 0.01 80 1011.7
20260508144339 55 296 0.0 0.9 0.00 0.01 0.01 80 1011.9
20260508143836 56 242 1.7 2.6 0.00 0.01 0.01 83 1011.8
20260508143333 55 206 0.9 2.6 0.00 0.01 0.01 83 1012.1
20260508142830 54 282 0.9 0.9 0.00 0.01 0.01 89 1012.1
20260508142326 53 254 0.9 1.7 0.00 0.01 0.01 91 1012.2
20260508141823 52 250 0.9 0.9 0.00 0.01 0.01 94 1012.3
20260508141320 52 229 1.7 1.7 0.00 0.01 0.01 97 1012.4
20260508140818 51 276 0.0 1.7 0.00 0.01 0.01 99 1012.2
20260508140314 51 243 0.9 1.7 0.00 0.01 0.01 99 1012.2
20260508135810 50 255 0.9 1.7 0.00 0.01 0.01 99 1012.3
20260508135307 50 292 0.9 1.7 0.00 0.01 0.01 99 1012.3
20260508134802 50 243 0.0 1.7 0.00 0.01 0.01 99 1012.5
20260508134300 49 257 0.9 0.9 0.00 0.01 0.01 99 1012.4
20260508133756 49 280 0.0 0.9 0.00 0.01 0.01 99 1012.6
20260508133254 49 298 0.0 0.9 0.00 0.01 0.01 99 1012.2
20260508132751 49 344 0.0 0.0 0.00 0.01 0.01 99 1012.2
20260508132249 49 345 0.0 0.9 0.00 0.01 0.01 99 1012.4
20260508131744 49 343 0.0 0.9 0.00 0.01 0.01 99 1012.3
20260508131241 48 344 0.0 0.0 0.00 0.01 0.01 99 1012.3
20260508130737 48 345 0.0 0.9 0.00 0.01 0.01 99 1012.3
20260508130235 48 345 0.0 0.0 0.00 0.01 0.01 99 1012.3
20260508125730 47 345 0.0 0.9 0.00 0.01 0.01 99 1012.4
20260508125227 47 345 0.0 0.9 0.00 0.01 0.01 99 1012.5
20260508124725 46 345 0.0 0.0 0.00 0.01 0.01 99 1012.4
20260508124222 47 345 0.0 0.0 0.00 0.01 0.01 99 1012.3
20260508123720 46 345 0.0 0.0 0.00 0.01 0.01 99 1012.2
20260508123218 46 345 0.0 0.0 0.00 0.01 0.01 99 1012.4
20260508122714 46 345 0.0 0.0 0.00 0.01 0.01 99 1012.4
20260508122211 45 345 0.0 0.0 0.00 0.01 0.01 99 1012.5
20260508121709 45 345 0.0 0.0 0.00 0.01 0.01 99 1012.3
20260508121207 44 345 0.0 0.0 0.00 0.01 0.01 99 1012.2
20260508120704 44 345 0.0 0.0 0.00 0.01 0.01 99 1012.1
20260508120202 44 345 0.0 0.0 0.00 0.01 0.01 99 1012.1
20260508115659 44 345 0.0 0.0 0.00 0.01 0.01 99 1012.2
20260508115156 43 345 0.0 0.0 0.00 0.01 0.01 99 1012.0
20260508114653 42 345 0.0 0.0 0.00 0.01 0.01 99 1012.2
20260508114149 42 345 0.0 0.0 0.00 0.01 0.01 99 1011.9
20260508113646 41 345 0.0 0.0 0.00 0.01 0.01 99 1011.9
20260508113145 41 345 0.0 0.0 0.00 0.01 0.01 99 1011.9
20260508112640 40 345 0.0 0.0 0.00 0.01 0.01 99 1011.8
20260508112138 40 345 0.0 0.0 0.00 0.01 0.01 99 1012.0
20260508111634 40 345 0.0 0.0 0.00 0.01 0.01 99 1012.2
20260508111132 40 345 0.0 0.0 0.00 0.01 0.01 99 1012.0
20260508110629 40 345 0.0 0.0 0.00 0.01 0.01 99 1012.0
20260508110125 40 345 0.0 0.0 0.00 0.01 0.01 99 1012.0
20260508105620 40 345 0.0 0.0 0.00 0.01 0.01 99 1011.9
20260508105117 40 345 0.0 0.0 0.00 0.01 0.01 99 1011.8
20260508104615 40 345 0.0 0.0 0.00 0.01 0.01 99 1011.5
20260508104111 40 345 0.0 0.0 0.00 0.01 0.01 99 1011.7
20260508103609 40 345 0.0 0.0 0.00 0.01 0.01 99 1011.9
20260508103106 40 345 0.0 0.0 0.00 0.01 0.01 99 1011.9
20260508102603 41 345 0.0 0.0 0.00 0.01 0.01 99 1011.7
20260508102101 41 345 0.0 0.0 0.00 0.01 0.01 99 1011.7
20260508101558 41 345 0.0 0.0 0.00 0.01 0.01 99 1011.9
20260508101055 41 345 0.0 0.0 0.00 0.01 0.01 99 1011.8
20260508100553 41 345 0.0 0.0 0.00 0.01 0.01 99 1011.8
20260508100050 41 345 0.0 0.0 0.00 0.01 0.01 99 1011.7
20260508095547 41 345 0.0 0.0 0.00 0.01 0.01 99 1011.7
20260508095044 41 345 0.0 0.0 0.00 0.01 0.01 99 1011.7
20260508094541 41 345 0.0 0.0 0.00 0.01 0.01 99 1011.9
20260508094038 40 345 0.0 0.0 0.00 0.01 0.01 99 1011.7
20260508093534 40 345 0.0 0.0 0.00 0.01 0.01 99 1011.8
20260508093032 40 345 0.0 0.0 0.00 0.01 0.01 99 1012.0
20260508092529 40 345 0.0 0.0 0.00 0.01 0.01 99 1011.8
20260508092029 39 345 0.0 0.0 0.00 0.01 0.01 99 1011.8
20260508091525 39 345 0.0 0.0 0.00 0.01 0.01 99 1011.9
20260508091022 39 345 0.0 0.0 0.00 0.01 0.01 99 1011.8
20260508090520 39 345 0.0 0.0 0.00 0.01 0.01 99 1011.8
20260508090016 39 345 0.0 0.0 0.00 0.01 0.01 99 1011.7
20260508085513 39 345 0.0 0.0 0.00 0.01 0.01 99 1011.8
20260508085010 39 345 0.0 0.0 0.00 0.01 0.01 99 1011.8
20260508084507 39 345 0.0 0.0 0.00 0.01 0.01 99 1011.8
20260508084004 39 345 0.0 0.0 0.00 0.01 0.01 99 1012.0
20260508083501 39 345 0.0 0.0 0.00 0.01 0.01 99 1011.9
20260508082956 39 345 0.0 0.0 0.00 0.01 0.01 99 1011.8
20260508082453 39 345 0.0 0.0 0.00 0.01 0.01 99 1012.0
20260508081951 40 345 0.0 0.0 0.00 0.01 0.01 99 1011.7
20260508081448 40 345 0.0 0.0 0.00 0.01 0.01 99 1011.7
20260508080944 40 345 0.0 0.0 0.00 0.01 0.01 99 1011.7
20260508080443 40 345 0.0 0.0 0.00 0.01 0.01 99 1011.9
20260508075939 40 345 0.0 0.0 0.00 0.01 0.01 99 1011.8
20260508075436 40 345 0.0 0.0 0.00 0.01 0.01 99 1012.0
20260508074933 40 345 0.0 0.0 0.00 0.01 0.01 99 1011.9
20260508074431 40 345 0.0 0.0 0.00 0.01 0.01 99 1011.9
20260508073927 40 345 0.0 0.0 0.00 0.01 0.01 99 1012.0
20260508073425 41 345 0.0 0.0 0.00 0.01 0.01 99 1011.8
20260508072922 41 345 0.0 0.0 0.00 0.01 0.01 99 1012.0
20260508072418 41 345 0.0 0.0 0.00 0.01 0.01 99 1011.9
20260508071916 41 345 0.0 0.0 0.00 0.01 0.01 99 1011.8
20260508071414 41 345 0.0 0.0 0.00 0.01 0.01 99 1012.0
20260508070911 41 345 0.0 0.0 0.00 0.01 0.01 99 1012.0
20260508070409 41 345 0.0 0.0 0.00 0.01 0.01 99 1012.0
20260508065906 41 345 0.0 0.0 0.00 0.01 0.01 99 1012.0
20260508065404 41 345 0.0 0.0 0.00 0.01 0.01 99 1011.9
20260508064902 41 345 0.0 0.0 0.00 0.01 0.01 99 1012.0
20260508064359 41 345 0.0 0.0 0.00 0.01 0.01 99 1012.1
20260508063857 41 345 0.0 0.0 0.00 0.01 0.01 99 1012.1
20260508063354 42 345 0.0 0.0 0.00 0.01 0.01 99 1012.2
20260508062851 42 345 0.0 0.0 0.00 0.01 0.01 99 1012.0
20260508062349 42 345 0.0 0.0 0.05 0.01 0.01 99 1012.0
20260508061846 42 345 0.0 0.0 0.05 0.01 0.01 99 1012.0
20260508061343 42 345 0.0 0.0 0.00 0.00 0.00 99 1012.1
20260508060839 42 345 0.0 0.0 0.00 0.00 0.00 99 1012.0
20260508060338 42 345 0.0 0.0 0.00 0.00 0.00 99 1012.1
20260508055832 42 345 0.0 0.9 0.00 0.00 0.00 99 1012.2
20260508055330 42 345 0.0 0.0 0.00 0.00 0.00 99 1012.2
20260508054826 42 347 0.9 0.9 0.00 0.00 0.00 99 1012.3
20260508054324 42 343 0.0 0.0 0.00 0.00 0.00 99 1012.2
20260508053821 42 343 0.0 0.0 0.00 0.00 0.00 99 1012.1
20260508053318 41 329 0.0 0.9 0.00 0.00 0.00 99 1012.1
20260508052815 41 329 0.0 0.0 0.00 0.00 0.00 99 1012.1
20260508052312 41 329 0.0 0.0 0.00 0.00 0.00 99 1012.3
20260508051809 41 329 0.0 0.0 0.00 0.00 0.00 99 1012.3
20260508051304 41 329 0.0 0.0 0.00 0.00 0.00 99 1012.1
20260508050801 41 329 0.0 0.0 0.00 0.00 0.00 99 1012.5
20260508050258 41 329 0.0 0.0 0.00 0.00 0.00 99 1012.3
20260508045753 41 329 0.0 0.0 0.00 0.00 0.00 99 1012.3
20260508045251 42 329 0.0 0.0 0.00 0.00 0.00 99 1012.4
20260508044749 42 329 0.0 0.0 0.00 0.00 0.00 99 1012.5
20260508044246 42 329 0.0 0.0 0.00 0.00 0.00 99 1012.3
20260508043741 42 329 0.0 0.0 0.00 0.00 0.00 99 1012.1